TimeEST,TemperatureF,Dew PointF,Humidity,Sea Level PressureIn,VisibilityMPH,Wind Direction,Wind SpeedMPH,Gust SpeedMPH,PrecipitationIn,Events,Conditions,WindDirDegrees,DateUTC
12:53 AM,39.9,30.9,70,30.12,10.0,NNW,3.5,-,N/A,,Overcast,340,2012-11-04 04:53:00
1:53 AM,39.9,30.0,68,30.12,10.0,North,3.5,-,N/A,,Overcast,360,2012-11-04 05:53:00
1:53 AM,39.0,28.0,65,30.12,10.0,Calm,Calm,-,N/A,,Overcast,0,2012-11-04 06:53:00
2:53 AM,39.9,27.0,60,30.11,10.0,Calm,Calm,-,N/A,,Overcast,0,2012-11-04 07:53:00
3:53 AM,37.9,30.0,73,30.10,10.0,Calm,Calm,-,N/A,,Overcast,0,2012-11-04 08:53:00
4:53 AM,39.0,30.9,73,30.12,10.0,NNW,3.5,-,N/A,,Overcast,340,2012-11-04 09:53:00
5:53 AM,37.9,32.0,79,30.12,10.0,Calm,Calm,-,N/A,,Overcast,0,2012-11-04 10:53:00
6:53 AM,37.9,32.0,79,30.12,10.0,North,4.6,-,N/A,,Overcast,350,2012-11-04 11:53:00
7:53 AM,37.9,32.0,79,30.12,10.0,North,4.6,-,N/A,,Overcast,350,2012-11-04 12:53:00
8:26 AM,37.4,32.0,81,30.11,10.0,NNW,4.6,-,N/A,,Overcast,330,2012-11-04 13:26:00
8:53 AM,39.0,32.0,76,30.14,10.0,Calm,Calm,-,N/A,,Mostly Cloudy,0,2012-11-04 13:53:00
9:53 AM,42.1,28.0,58,30.13,10.0,North,4.6,-,N/A,,Overcast,350,2012-11-04 14:53:00
10:53 AM,42.1,27.0,55,30.13,10.0,Variable,6.9,-,N/A,,Overcast,0,2012-11-04 15:53:00
11:53 AM,42.1,27.0,55,30.12,10.0,NW,6.9,-,N/A,,Overcast,310,2012-11-04 16:53:00
12:53 PM,42.1,27.0,55,30.12,10.0,Variable,5.8,-,N/A,,Overcast,0,2012-11-04 17:53:00
1:53 PM,42.1,27.0,55,30.11,10.0,NW,4.6,-,N/A,,Overcast,320,2012-11-04 18:53:00
2:53 PM,41.0,26.1,55,30.11,10.0,Variable,4.6,-,N/A,,Overcast,0,2012-11-04 19:53:00
3:53 PM,41.0,26.1,55,30.12,10.0,NNW,8.1,-,N/A,,Overcast,330,2012-11-04 20:53:00
4:53 PM,39.9,26.1,58,30.12,10.0,WNW,4.6,-,N/A,,Overcast,300,2012-11-04 21:53:00
5:53 PM,39.0,26.1,60,30.13,10.0,NNW,4.6,-,N/A,,Overcast,330,2012-11-04 22:53:00
6:53 PM,39.0,26.1,60,30.14,10.0,Calm,Calm,-,N/A,,Overcast,0,2012-11-04 23:53:00
7:53 PM,37.9,26.1,62,30.13,10.0,North,3.5,-,N/A,,Overcast,360,2012-11-05 00:53:00
8:53 PM,37.9,27.0,65,30.13,10.0,Calm,Calm,-,N/A,,Overcast,0,2012-11-05 01:53:00
9:53 PM,37.9,26.1,62,30.13,10.0,Calm,Calm,-,N/A,,Overcast,0,2012-11-05 02:53:00
10:53 PM,37.9,27.0,65,30.12,10.0,Calm,Calm,-,N/A,,Overcast,0,2012-11-05 03:53:00